Location: Mannheim
(49.4880°N, 8.4650°E)
Time: 05:14:30
(UTC+02:00)

ISS - Pass Details

Date: 20 September 2023
Orbit: 414 x 421 km, 51.6° (Epoch: 02 October)

Event Time Altitude Azimuth Distance (km) Brightness Sun altitude
Rises 21:33:28 0° 273° (W) 2,356 1.2 -20.2°
Reaches altitude 10° 21:35:35 10° 278° (W) 1,494 0.1 -20.5°
Maximum altitude 21:38:54 57° 358° (N) 498 -3.3 -21.0°
Enters shadow 21:38:56 57° 1° (N) 498 -3.4 -21.0°
